contact:dominique.lefevre@mio.osupytheas.fr, maurice.libes@osupytheas.fr, didier.mallarino@osupytheas.fr
Project:EMSO http://www.emso-fr.org/EMSO-France
Depth: 2436.0 m
Title:EMSO Ligure Ouest : Data MII capteur MICROCAT
DateTime_Computer,Latitude,Longitude,Temperature,Conductivity,Pressure,DateTime_Instrument
DateTime_Computer,Latitude,Longitude,degC,S m-1,dbar,DateTime_Instrument
2022-01-23T00:01:34Z,42.805,6.029,13.3015,4.60082,2469.927,2022-1-23T02:03:06Z
2022-01-23T00:04:37Z,42.805,6.029,13.3023,4.60081,2469.876,2022-1-23T02:06:09Z
2022-01-23T00:07:41Z,42.805,6.029,13.3014,4.60078,2469.89,2022-1-23T02:09:12Z
2022-01-23T00:10:44Z,42.805,6.029,13.3004,4.60054,2469.914,2022-1-23T02:12:15Z
2022-01-23T00:13:47Z,42.805,6.029,13.3016,4.60047,2469.853,2022-1-23T02:15:18Z
2022-01-23T00:16:50Z,42.805,6.029,13.3013,4.60089,2469.89,2022-1-23T02:18:22Z
2022-01-23T00:19:53Z,42.805,6.029,13.3029,4.60097,2469.9,2022-1-23T02:21:25Z
2022-01-23T00:22:56Z,42.805,6.029,13.3006,4.60077,2469.83,2022-1-23T02:24:28Z
2022-01-23T00:25:59Z,42.805,6.029,13.3004,4.60070,2469.89,2022-1-23T02:27:31Z
2022-01-23T00:29:02Z,42.805,6.029,13.3030,4.60090,2469.89,2022-1-23T02:30:34Z
2022-01-23T00:32:06Z,42.805,6.029,13.3019,4.60097,2469.914,2022-1-23T02:33:37Z
2022-01-23T00:35:09Z,42.805,6.029,13.3047,4.60091,2469.914,2022-1-23T02:36:40Z
2022-01-23T00:38:12Z,42.805,6.029,13.3029,4.60090,2469.876,2022-1-23T02:39:43Z
2022-01-23T00:41:15Z,42.805,6.029,13.3042,4.60131,2469.89,2022-1-23T02:42:47Z
2022-01-23T00:44:18Z,42.805,6.029,13.3038,4.60085,2469.867,2022-1-23T02:45:50Z
2022-01-23T00:47:21Z,42.805,6.029,13.3011,4.60054,2469.853,2022-1-23T02:48:53Z
2022-01-23T00:50:24Z,42.805,6.029,13.3009,4.60081,2469.9,2022-1-23T02:51:56Z
2022-01-23T00:53:27Z,42.805,6.029,13.3006,4.60082,2469.9,2022-1-23T02:54:59Z
2022-01-23T00:56:31Z,42.805,6.029,13.3015,4.60102,2469.867,2022-1-23T02:58:02Z
2022-01-23T00:59:34Z,42.805,6.029,13.3006,4.60055,2469.89,2022-1-23T03:01:05Z
2022-01-23T01:02:37Z,42.805,6.029,13.3015,4.60059,2469.853,2022-1-23T03:04:08Z
2022-01-23T01:05:40Z,42.805,6.029,13.3009,4.60059,2469.867,2022-1-23T03:07:12Z
2022-01-23T01:08:43Z,42.805,6.029,13.3012,4.60084,2469.876,2022-1-23T03:10:15Z
2022-01-23T01:11:46Z,42.805,6.029,13.3020,4.60078,2469.867,2022-1-23T03:13:18Z
2022-01-23T01:14:49Z,42.805,6.029,13.3004,4.60057,2469.867,2022-1-23T03:16:21Z
2022-01-23T01:17:52Z,42.805,6.029,13.3013,4.60056,2469.89,2022-1-23T03:19:24Z
2022-01-23T01:20:56Z,42.805,6.029,13.3011,4.60078,2469.867,2022-1-23T03:22:27Z
2022-01-23T01:23:59Z,42.805,6.029,13.3010,4.60059,2469.853,2022-1-23T03:25:30Z
2022-01-23T01:27:02Z,42.805,6.029,13.3014,4.60081,2469.867,2022-1-23T03:28:33Z
2022-01-23T01:30:05Z,42.805,6.029,13.3011,4.60072,2469.867,2022-1-23T03:31:37Z
2022-01-23T01:33:08Z,42.805,6.029,13.3009,4.60063,2469.83,2022-1-23T03:34:40Z
2022-01-23T01:36:11Z,42.805,6.029,13.3014,4.60052,2469.806,2022-1-23T03:37:43Z
2022-01-23T01:39:14Z,42.805,6.029,13.3013,4.60060,2469.821,2022-1-23T03:40:46Z
2022-01-23T01:42:17Z,42.805,6.029,13.3009,4.60057,2469.876,2022-1-23T03:43:49Z
2022-01-23T01:45:21Z,42.805,6.029,13.3004,4.60050,2469.853,2022-1-23T03:46:52Z
2022-01-23T01:48:24Z,42.805,6.029,13.3013,4.60052,2469.83,2022-1-23T03:49:55Z
2022-01-23T01:51:27Z,42.805,6.029,13.3004,4.60046,2469.83,2022-1-23T03:52:58Z
2022-01-23T01:54:30Z,42.805,6.029,13.3009,4.60058,2469.83,2022-1-23T03:56:02Z
2022-01-23T01:57:33Z,42.805,6.029,13.3004,4.60046,2469.844,2022-1-23T03:59:05Z
2022-01-23T02:00:36Z,42.805,6.029,13.3006,4.60085,2469.806,2022-1-23T04:02:08Z
2022-01-23T02:03:39Z,42.805,6.029,13.3008,4.60084,2469.83,2022-1-23T04:05:11Z
2022-01-23T02:06:42Z,42.805,6.029,13.3014,4.60070,2469.844,2022-1-23T04:08:14Z
2022-01-23T02:09:46Z,42.805,6.029,13.3022,4.60067,2469.83,2022-1-23T04:11:17Z
2022-01-23T02:12:49Z,42.805,6.029,13.3018,4.60062,2469.806,2022-1-23T04:14:20Z
2022-01-23T02:15:52Z,42.805,6.029,13.3005,4.60081,2469.844,2022-1-23T04:17:23Z
2022-01-23T02:18:55Z,42.805,6.029,13.3009,4.60063,2469.83,2022-1-23T04:20:27Z
2022-01-23T02:21:58Z,42.805,6.029,13.3010,4.60077,2469.806,2022-1-23T04:23:30Z
2022-01-23T02:25:01Z,42.805,6.029,13.3010,4.60051,2469.844,2022-1-23T04:26:33Z
2022-01-23T02:28:04Z,42.805,6.029,13.3019,4.60052,2469.806,2022-1-23T04:29:36Z
2022-01-23T02:31:07Z,42.805,6.029,13.3013,4.60049,2469.821,2022-1-23T04:32:39Z
2022-01-23T02:34:11Z,42.805,6.029,13.3011,4.60067,2469.844,2022-1-23T04:35:42Z
2022-01-23T02:37:14Z,42.805,6.029,13.3014,4.60085,2469.844,2022-1-23T04:38:45Z
2022-01-23T02:40:17Z,42.805,6.029,13.3015,4.60067,2469.821,2022-1-23T04:41:48Z
2022-01-23T02:43:20Z,42.805,6.029,13.3019,4.60095,2469.844,2022-1-23T04:44:52Z
2022-01-23T02:46:23Z,42.805,6.029,13.3005,4.60076,2469.821,2022-1-23T04:47:55Z
2022-01-23T02:49:26Z,42.805,6.029,13.3027,4.60091,2469.83,2022-1-23T04:50:58Z
2022-01-23T02:52:29Z,42.805,6.029,13.3008,4.60051,2469.853,2022-1-23T04:54:01Z
2022-01-23T02:55:32Z,42.805,6.029,13.3024,4.60086,2469.844,2022-1-23T04:57:04Z
2022-01-23T02:58:35Z,42.805,6.029,13.3006,4.60079,2469.844,2022-1-23T05:00:07Z
2022-01-23T03:01:39Z,42.805,6.029,13.3012,4.60069,2469.853,2022-1-23T05:03:10Z
2022-01-23T03:04:42Z,42.805,6.029,13.3009,4.60081,2469.83,2022-1-23T05:06:13Z
2022-01-23T03:07:45Z,42.805,6.029,13.3009,4.60083,2469.853,2022-1-23T05:09:16Z
2022-01-23T03:10:48Z,42.805,6.029,13.3005,4.60054,2469.83,2022-1-23T05:12:20Z
2022-01-23T03:13:51Z,42.805,6.029,13.3011,4.60057,2469.806,2022-1-23T05:15:23Z
2022-01-23T03:16:54Z,42.805,6.029,13.3010,4.60058,2469.821,2022-1-23T05:18:26Z
2022-01-23T03:19:57Z,42.805,6.029,13.3015,4.60063,2469.806,2022-1-23T05:21:29Z
2022-01-23T03:23:00Z,42.805,6.029,13.3022,4.60082,2469.783,2022-1-23T05:24:32Z
2022-01-23T03:26:04Z,42.805,6.029,13.3019,4.60070,2469.83,2022-1-23T05:27:35Z
2022-01-23T03:29:07Z,42.805,6.029,13.3014,4.60070,2469.83,2022-1-23T05:30:38Z
2022-01-23T03:32:10Z,42.805,6.029,13.3011,4.60064,2469.83,2022-1-23T05:33:41Z
2022-01-23T03:35:13Z,42.805,6.029,13.3017,4.60104,2469.821,2022-1-23T05:36:45Z
2022-01-23T03:38:16Z,42.805,6.029,13.3029,4.60080,2469.783,2022-1-23T05:39:48Z
2022-01-23T03:41:19Z,42.805,6.029,13.3018,4.60085,2469.806,2022-1-23T05:42:51Z
2022-01-23T03:44:22Z,42.805,6.029,13.3009,4.60061,2469.806,2022-1-23T05:45:54Z
2022-01-23T03:47:25Z,42.805,6.029,13.3011,4.60092,2469.806,2022-1-23T05:48:57Z
2022-01-23T03:50:29Z,42.805,6.029,13.3010,4.60072,2469.844,2022-1-23T05:52:00Z
2022-01-23T03:53:32Z,42.805,6.029,13.3015,4.60066,2469.821,2022-1-23T05:55:03Z
2022-01-23T03:56:35Z,42.805,6.029,13.3017,4.60086,2469.797,2022-1-23T05:58:06Z
2022-01-23T03:59:38Z,42.805,6.029,13.3009,4.60062,2469.797,2022-1-23T06:01:10Z
2022-01-23T04:02:41Z,42.805,6.029,13.3015,4.60079,2469.821,2022-1-23T06:04:13Z
2022-01-23T04:05:44Z,42.805,6.029,13.3016,4.60097,2469.806,2022-1-23T06:07:16Z
2022-01-23T04:08:47Z,42.805,6.029,13.3006,4.60091,2469.844,2022-1-23T06:10:19Z
2022-01-23T04:11:50Z,42.805,6.029,13.3022,4.60096,2469.844,2022-1-23T06:13:22Z
2022-01-23T04:14:54Z,42.805,6.029,13.3009,4.60061,2469.806,2022-1-23T06:16:25Z
2022-01-23T04:17:57Z,42.805,6.029,13.3003,4.60053,2469.83,2022-1-23T06:19:28Z
2022-01-23T04:21:00Z,42.805,6.029,13.3007,4.60042,2469.806,2022-1-23T06:22:31Z
2022-01-23T04:24:03Z,42.805,6.029,13.3008,4.60063,2469.806,2022-1-23T06:25:35Z
2022-01-23T04:27:06Z,42.805,6.029,13.3033,4.60062,2469.867,2022-1-23T06:28:38Z
2022-01-23T04:30:09Z,42.805,6.029,13.3025,4.60087,2469.83,2022-1-23T06:31:41Z
2022-01-23T04:33:12Z,42.805,6.029,13.3006,4.60061,2469.806,2022-1-23T06:34:44Z
2022-01-23T04:36:15Z,42.805,6.029,13.3012,4.60059,2469.83,2022-1-23T06:37:47Z
2022-01-23T04:39:19Z,42.805,6.029,13.3005,4.60057,2469.83,2022-1-23T06:40:50Z
2022-01-23T04:42:22Z,42.805,6.029,13.3010,4.60073,2469.821,2022-1-23T06:43:53Z
2022-01-23T04:45:25Z,42.805,6.029,13.3005,4.60097,2469.793,2022-1-23T06:46:56Z
2022-01-23T04:48:28Z,42.805,6.029,13.3008,4.60069,2469.821,2022-1-23T06:50:00Z
2022-01-23T04:51:31Z,42.805,6.029,13.3011,4.60079,2469.806,2022-1-23T06:53:03Z
2022-01-23T04:54:34Z,42.805,6.029,13.3013,4.60096,2469.806,2022-1-23T06:56:06Z
2022-01-23T04:57:37Z,42.805,6.029,13.3013,4.60084,2469.806,2022-1-23T06:59:09Z
2022-01-23T05:00:40Z,42.805,6.029,13.3007,4.60058,2469.797,2022-1-23T07:02:12Z
2022-01-23T05:03:43Z,42.805,6.029,13.3011,4.60069,2469.806,2022-1-23T07:05:15Z
2022-01-23T05:06:47Z,42.805,6.029,13.3014,4.60077,2469.806,2022-1-23T07:08:18Z
2022-01-23T05:09:50Z,42.805,6.029,13.3011,4.60095,2469.83,2022-1-23T07:11:21Z
2022-01-23T05:12:53Z,42.805,6.029,13.3016,4.60083,2469.806,2022-1-23T07:14:25Z
2022-01-23T05:15:56Z,42.805,6.029,13.3031,4.60102,2469.821,2022-1-23T07:17:28Z
2022-01-23T05:18:59Z,42.805,6.029,13.3018,4.60095,2469.844,2022-1-23T07:20:31Z
2022-01-23T05:22:02Z,42.805,6.029,13.3024,4.60079,2469.806,2022-1-23T07:23:34Z
2022-01-23T05:25:05Z,42.805,6.029,13.3024,4.60094,2469.806,2022-1-23T07:26:37Z
2022-01-23T05:28:08Z,42.805,6.029,13.3011,4.60085,2469.83,2022-1-23T07:29:40Z
2022-01-23T05:31:12Z,42.805,6.029,13.3014,4.60061,2469.83,2022-1-23T07:32:43Z
2022-01-23T05:34:15Z,42.805,6.029,13.3019,4.60081,2469.844,2022-1-23T07:35:46Z
2022-01-23T05:37:18Z,42.805,6.029,13.3021,4.60097,2469.83,2022-1-23T07:38:50Z
2022-01-23T05:40:21Z,42.805,6.029,13.3013,4.60102,2469.844,2022-1-23T07:41:53Z
2022-01-23T05:43:24Z,42.805,6.029,13.3021,4.60092,2469.844,2022-1-23T07:44:56Z
2022-01-23T05:46:27Z,42.805,6.029,13.3009,4.60097,2469.83,2022-1-23T07:47:59Z
2022-01-23T05:49:30Z,42.805,6.029,13.3027,4.60087,2469.83,2022-1-23T07:51:02Z
2022-01-23T05:52:33Z,42.805,6.029,13.3024,4.60072,2469.83,2022-1-23T07:54:05Z
2022-01-23T05:55:37Z,42.805,6.029,13.3014,4.60097,2469.867,2022-1-23T07:57:08Z
2022-01-23T05:58:40Z,42.805,6.029,13.3029,4.60074,2469.853,2022-1-23T08:00:11Z
2022-01-23T06:01:43Z,42.805,6.029,13.3011,4.60067,2469.853,2022-1-23T08:03:14Z
2022-01-23T06:04:46Z,42.805,6.029,13.3026,4.60086,2469.876,2022-1-23T08:06:18Z
2022-01-23T06:07:49Z,42.805,6.029,13.3020,4.60067,2469.853,2022-1-23T08:09:21Z
2022-01-23T06:10:52Z,42.805,6.029,13.3019,4.60081,2469.83,2022-1-23T08:12:24Z
2022-01-23T06:13:55Z,42.805,6.029,13.3016,4.60064,2469.853,2022-1-23T08:15:27Z
2022-01-23T06:16:58Z,42.805,6.029,13.3016,4.60089,2469.83,2022-1-23T08:18:30Z
2022-01-23T06:20:02Z,42.805,6.029,13.3006,4.60079,2469.89,2022-1-23T08:21:33Z
2022-01-23T06:23:05Z,42.805,6.029,13.3011,4.60085,2469.876,2022-1-23T08:24:36Z
2022-01-23T06:26:08Z,42.805,6.029,13.3020,4.60063,2469.844,2022-1-23T08:27:40Z
2022-01-23T06:29:11Z,42.805,6.029,13.3011,4.60090,2469.876,2022-1-23T08:30:43Z
2022-01-23T06:32:14Z,42.805,6.029,13.3014,4.60075,2469.876,2022-1-23T08:33:46Z
2022-01-23T06:35:17Z,42.805,6.029,13.3021,4.60064,2469.89,2022-1-23T08:36:49Z
2022-01-23T06:38:20Z,42.805,6.029,13.3010,4.60058,2469.876,2022-1-23T08:39:52Z
2022-01-23T06:41:23Z,42.805,6.029,13.3013,4.60085,2469.89,2022-1-23T08:42:55Z
2022-01-23T06:44:27Z,42.805,6.029,13.3006,4.60077,2469.876,2022-1-23T08:45:58Z
2022-01-23T06:47:30Z,42.805,6.029,13.3014,4.60070,2469.89,2022-1-23T08:49:01Z
2022-01-23T06:50:33Z,42.805,6.029,13.3009,4.60059,2469.876,2022-1-23T08:52:04Z
2022-01-23T06:53:36Z,42.805,6.029,13.3010,4.60073,2469.89,2022-1-23T08:55:08Z
2022-01-23T06:56:39Z,42.805,6.029,13.3008,4.60078,2469.886,2022-1-23T08:58:11Z
2022-01-23T06:59:42Z,42.805,6.029,13.3015,4.60062,2469.89,2022-1-23T09:01:14Z
2022-01-23T07:02:45Z,42.805,6.029,13.3009,4.60064,2469.876,2022-1-23T09:04:17Z
2022-01-23T07:05:48Z,42.805,6.029,13.3007,4.60059,2469.914,2022-1-23T09:07:20Z
2022-01-23T07:08:52Z,42.805,6.029,13.3019,4.60066,2469.9,2022-1-23T09:10:23Z
2022-01-23T07:11:55Z,42.805,6.029,13.3015,4.60072,2469.89,2022-1-23T09:13:26Z
2022-01-23T07:14:58Z,42.805,6.029,13.3011,4.60046,2469.876,2022-1-23T09:16:29Z
2022-01-23T07:18:01Z,42.805,6.029,13.3016,4.60056,2469.96,2022-1-23T09:19:33Z
2022-01-23T07:21:04Z,42.805,6.029,13.3016,4.60074,2469.923,2022-1-23T09:22:36Z
2022-01-23T07:24:07Z,42.805,6.029,13.3016,4.60073,2469.923,2022-1-23T09:25:39Z
2022-01-23T07:27:10Z,42.805,6.029,13.3015,4.60072,2469.9,2022-1-23T09:28:42Z
2022-01-23T07:30:13Z,42.805,6.029,13.3010,4.60067,2469.937,2022-1-23T09:31:45Z
2022-01-23T07:33:17Z,42.805,6.029,13.3008,4.60062,2469.923,2022-1-23T09:34:48Z
2022-01-23T07:36:20Z,42.805,6.029,13.3006,4.60052,2469.923,2022-1-23T09:37:51Z
2022-01-23T07:39:23Z,42.805,6.029,13.3014,4.60056,2469.947,2022-1-23T09:40:54Z
2022-01-23T07:42:26Z,42.805,6.029,13.3014,4.60072,2469.96,2022-1-23T09:43:58Z
2022-01-23T07:45:29Z,42.805,6.029,13.3013,4.60074,2469.923,2022-1-23T09:47:01Z
2022-01-23T07:48:32Z,42.805,6.029,13.3015,4.60067,2469.947,2022-1-23T09:50:04Z
2022-01-23T07:51:35Z,42.805,6.029,13.3015,4.60064,2470.007,2022-1-23T09:53:07Z
2022-01-23T07:54:38Z,42.805,6.029,13.3007,4.60069,2469.96,2022-1-23T09:56:10Z
2022-01-23T07:57:42Z,42.805,6.029,13.3013,4.60073,2469.97,2022-1-23T09:59:13Z
2022-01-23T08:00:45Z,42.805,6.029,13.3018,4.60061,2469.956,2022-1-23T10:02:16Z
2022-01-23T08:03:48Z,42.805,6.029,13.3006,4.60055,2469.984,2022-1-23T10:05:19Z
2022-01-23T08:06:51Z,42.805,6.029,13.3011,4.60049,2469.97,2022-1-23T10:08:23Z
2022-01-23T08:09:54Z,42.805,6.029,13.3012,4.60049,2469.993,2022-1-23T10:11:26Z
2022-01-23T08:12:57Z,42.805,6.029,13.3020,4.60064,2469.993,2022-1-23T10:14:29Z
2022-01-23T08:16:00Z,42.805,6.029,13.3009,4.60067,2469.993,2022-1-23T10:17:32Z
2022-01-23T08:19:03Z,42.805,6.029,13.3014,4.60058,2470.007,2022-1-23T10:20:35Z
2022-01-23T08:22:07Z,42.805,6.029,13.3011,4.60054,2470.017,2022-1-23T10:23:38Z
2022-01-23T08:25:10Z,42.805,6.029,13.3009,4.60053,2469.993,2022-1-23T10:26:41Z
2022-01-23T08:28:13Z,42.805,6.029,13.3011,4.60060,2470.03,2022-1-23T10:29:44Z
2022-01-23T08:31:16Z,42.805,6.029,13.3012,4.60070,2470.03,2022-1-23T10:32:48Z
2022-01-23T08:34:19Z,42.805,6.029,13.3011,4.60057,2470.04,2022-1-23T10:35:51Z
2022-01-23T08:37:22Z,42.805,6.029,13.3015,4.60066,2470.017,2022-1-23T10:38:54Z
2022-01-23T08:40:25Z,42.805,6.029,13.3023,4.60062,2470.04,2022-1-23T10:41:57Z
2022-01-23T08:43:28Z,42.805,6.029,13.3014,4.60067,2470.04,2022-1-23T10:45:00Z
2022-01-23T08:46:32Z,42.805,6.029,13.3014,4.60056,2470.063,2022-1-23T10:48:03Z
2022-01-23T08:49:35Z,42.805,6.029,13.3009,4.60053,2470.04,2022-1-23T10:51:06Z
2022-01-23T08:52:38Z,42.805,6.029,13.3010,4.60049,2470.017,2022-1-23T10:54:09Z
2022-01-23T08:55:41Z,42.805,6.029,13.3004,4.60049,2470.04,2022-1-23T10:57:13Z
2022-01-23T08:58:44Z,42.805,6.029,13.3013,4.60051,2470.1,2022-1-23T11:00:16Z
2022-01-23T09:01:47Z,42.805,6.029,13.3011,4.60049,2470.04,2022-1-23T11:03:19Z
2022-01-23T09:04:50Z,42.805,6.029,13.3018,4.60066,2470.04,2022-1-23T11:06:22Z
2022-01-23T09:07:53Z,42.805,6.029,13.3004,4.60046,2470.063,2022-1-23T11:09:25Z
2022-01-23T09:10:57Z,42.805,6.029,13.3011,4.60044,2470.077,2022-1-23T11:12:28Z
2022-01-23T09:14:00Z,42.805,6.029,13.3013,4.60046,2470.087,2022-1-23T11:15:31Z
2022-01-23T09:17:03Z,42.805,6.029,13.3015,4.60054,2470.063,2022-1-23T11:18:34Z
2022-01-23T09:20:06Z,42.805,6.029,13.3011,4.60052,2470.063,2022-1-23T11:21:38Z
2022-01-23T09:23:09Z,42.805,6.029,13.3011,4.60047,2470.11,2022-1-23T11:24:41Z
2022-01-23T09:26:12Z,42.805,6.029,13.3011,4.60053,2470.11,2022-1-23T11:27:44Z
2022-01-23T09:29:15Z,42.805,6.029,13.3011,4.60049,2470.124,2022-1-23T11:30:47Z
2022-01-23T09:32:18Z,42.805,6.029,13.3016,4.60054,2470.124,2022-1-23T11:33:50Z
2022-01-23T09:35:22Z,42.805,6.029,13.3009,4.60043,2470.077,2022-1-23T11:36:53Z
2022-01-23T09:38:25Z,42.805,6.029,13.3004,4.60049,2470.087,2022-1-23T11:39:56Z
2022-01-23T09:41:28Z,42.805,6.029,13.3010,4.60049,2470.087,2022-1-23T11:42:59Z
2022-01-23T09:44:31Z,42.805,6.029,13.3009,4.60057,2470.124,2022-1-23T11:46:03Z
2022-01-23T09:47:34Z,42.805,6.029,13.3007,4.60056,2470.124,2022-1-23T11:49:06Z
2022-01-23T09:50:37Z,42.805,6.029,13.3009,4.60057,2470.133,2022-1-23T11:52:09Z
2022-01-23T09:53:40Z,42.805,6.029,13.3009,4.60041,2470.133,2022-1-23T11:55:12Z
2022-01-23T09:56:43Z,42.805,6.029,13.3006,4.60046,2470.147,2022-1-23T11:58:15Z
2022-01-23T09:59:47Z,42.805,6.029,13.3008,4.60057,2470.11,2022-1-23T12:01:18Z
2022-01-23T10:02:50Z,42.805,6.029,13.3011,4.60055,2470.124,2022-1-23T12:04:21Z
2022-01-23T10:05:53Z,42.805,6.029,13.3013,4.60059,2470.124,2022-1-23T12:07:24Z
2022-01-23T10:08:56Z,42.805,6.029,13.3006,4.60049,2470.133,2022-1-23T12:10:28Z
2022-01-23T10:11:59Z,42.805,6.029,13.3006,4.60064,2470.156,2022-1-23T12:13:31Z
2022-01-23T10:15:02Z,42.805,6.029,13.3011,4.60041,2470.133,2022-1-23T12:16:34Z
2022-01-23T10:18:05Z,42.805,6.029,13.3009,4.60059,2470.18,2022-1-23T12:19:37Z
2022-01-23T10:21:08Z,42.805,6.029,13.3017,4.60054,2470.11,2022-1-23T12:22:40Z
2022-01-23T10:24:12Z,42.805,6.029,13.3007,4.60066,2470.147,2022-1-23T12:25:43Z
2022-01-23T10:27:15Z,42.805,6.029,13.3007,4.60063,2470.147,2022-1-23T12:28:46Z
2022-01-23T10:30:18Z,42.805,6.029,13.3008,4.60063,2470.147,2022-1-23T12:31:50Z
2022-01-23T10:33:21Z,42.805,6.029,13.3011,4.60050,2470.18,2022-1-23T12:34:53Z
2022-01-23T10:36:24Z,42.805,6.029,13.3008,4.60040,2470.11,2022-1-23T12:37:56Z
2022-01-23T10:39:27Z,42.805,6.029,13.3005,4.60044,2470.156,2022-1-23T12:40:59Z
2022-01-23T10:42:30Z,42.805,6.029,13.3011,4.60059,2470.171,2022-1-23T12:44:02Z
2022-01-23T10:45:34Z,42.805,6.029,13.3006,4.60052,2470.133,2022-1-23T12:47:05Z
2022-01-23T10:48:37Z,42.805,6.029,13.3013,4.60074,2470.18,2022-1-23T12:50:08Z
2022-01-23T10:51:40Z,42.805,6.029,13.3015,4.60046,2470.171,2022-1-23T12:53:11Z
2022-01-23T10:54:43Z,42.805,6.029,13.3006,4.60040,2470.171,2022-1-23T12:56:15Z
2022-01-23T10:57:46Z,42.805,6.029,13.3008,4.60056,2470.171,2022-1-23T12:59:18Z
2022-01-23T11:00:49Z,42.805,6.029,13.3021,4.60052,2470.194,2022-1-23T13:02:21Z
2022-01-23T11:03:52Z,42.805,6.029,13.3011,4.60050,2470.194,2022-1-23T13:05:24Z
2022-01-23T11:06:55Z,42.805,6.029,13.3004,4.60043,2470.171,2022-1-23T13:08:27Z
2022-01-23T11:09:59Z,42.805,6.029,13.3003,4.60044,2470.156,2022-1-23T13:11:30Z
2022-01-23T11:13:02Z,42.805,6.029,13.3006,4.60052,2470.156,2022-1-23T13:14:33Z
2022-01-23T11:16:05Z,42.805,6.029,13.3015,4.60052,2470.156,2022-1-23T13:17:36Z
2022-01-23T11:19:08Z,42.805,6.029,13.3019,4.60070,2470.171,2022-1-23T13:20:40Z
2022-01-23T11:22:11Z,42.805,6.029,13.3009,4.60046,2470.194,2022-1-23T13:23:43Z
2022-01-23T11:25:14Z,42.805,6.029,13.3006,4.60049,2470.133,2022-1-23T13:26:46Z
2022-01-23T11:28:17Z,42.805,6.029,13.3017,4.60079,2470.194,2022-1-23T13:29:49Z
2022-01-23T11:31:20Z,42.805,6.029,13.3006,4.60077,2470.156,2022-1-23T13:32:52Z
2022-01-23T11:34:24Z,42.805,6.029,13.3004,4.60043,2470.147,2022-1-23T13:35:55Z
2022-01-23T11:37:27Z,42.805,6.029,13.3014,4.60081,2470.194,2022-1-23T13:38:58Z
2022-01-23T11:40:30Z,42.805,6.029,13.3011,4.60057,2470.194,2022-1-23T13:42:02Z
2022-01-23T11:43:33Z,42.805,6.029,13.3012,4.60068,2470.18,2022-1-23T13:45:05Z
2022-01-23T11:46:36Z,42.805,6.029,13.3006,4.60042,2470.18,2022-1-23T13:48:08Z
2022-01-23T11:49:39Z,42.805,6.029,13.3007,4.60048,2470.18,2022-1-23T13:51:11Z
2022-01-23T11:52:42Z,42.805,6.029,13.3015,4.60046,2470.194,2022-1-23T13:54:14Z
2022-01-23T11:55:45Z,42.805,6.029,13.3008,4.60064,2470.171,2022-1-23T13:57:17Z
2022-01-23T11:58:49Z,42.805,6.029,13.3014,4.60047,2470.156,2022-1-23T14:00:20Z
2022-01-23T12:01:52Z,42.805,6.029,13.3009,4.60044,2470.18,2022-1-23T14:03:23Z
2022-01-23T12:04:55Z,42.805,6.029,13.3002,4.60043,2470.119,2022-1-23T14:06:27Z
2022-01-23T12:07:58Z,42.805,6.029,13.3008,4.60040,2470.133,2022-1-23T14:09:30Z
2022-01-23T12:11:01Z,42.805,6.029,13.3009,4.60059,2470.133,2022-1-23T14:12:33Z
2022-01-23T12:14:04Z,42.805,6.029,13.3009,4.60079,2470.156,2022-1-23T14:15:36Z
2022-01-23T12:17:07Z,42.805,6.029,13.3017,4.60062,2470.156,2022-1-23T14:18:39Z
2022-01-23T12:20:10Z,42.805,6.029,13.3013,4.60057,2470.156,2022-1-23T14:21:42Z
2022-01-23T12:23:14Z,42.805,6.029,13.3011,4.60069,2470.156,2022-1-23T14:24:45Z
2022-01-23T12:26:17Z,42.805,6.029,13.3018,4.60072,2470.18,2022-1-23T14:27:48Z
2022-01-23T12:29:20Z,42.805,6.029,13.3011,4.60059,2470.156,2022-1-23T14:30:52Z
2022-01-23T12:32:23Z,42.805,6.029,13.3007,4.60055,2470.156,2022-1-23T14:33:55Z
2022-01-23T12:35:26Z,42.805,6.029,13.3009,4.60067,2470.133,2022-1-23T14:36:58Z
2022-01-23T12:38:29Z,42.805,6.029,13.3003,4.60054,2470.18,2022-1-23T14:40:01Z
2022-01-23T12:41:32Z,42.805,6.029,13.3010,4.60091,2470.133,2022-1-23T14:43:04Z
2022-01-23T12:44:36Z,42.805,6.029,13.3004,4.60077,2470.156,2022-1-23T14:46:07Z
2022-01-23T12:47:39Z,42.805,6.029,13.3010,4.60050,2470.156,2022-1-23T14:49:10Z
2022-01-23T12:50:42Z,42.805,6.029,13.3018,4.60069,2470.171,2022-1-23T14:52:13Z
2022-01-23T12:53:45Z,42.805,6.029,13.3004,4.60062,2470.156,2022-1-23T14:55:17Z
2022-01-23T12:56:48Z,42.805,6.029,13.3010,4.60063,2470.156,2022-1-23T14:58:20Z
2022-01-23T12:59:51Z,42.805,6.029,13.3014,4.60058,2470.156,2022-1-23T15:01:23Z
2022-01-23T13:02:54Z,42.805,6.029,13.3019,4.60066,2470.171,2022-1-23T15:04:26Z
2022-01-23T13:05:57Z,42.805,6.029,13.3011,4.60067,2470.171,2022-1-23T15:07:29Z
2022-01-23T13:09:01Z,42.805,6.029,13.3022,4.60068,2470.156,2022-1-23T15:10:32Z
2022-01-23T13:12:04Z,42.805,6.029,13.3012,4.60080,2470.203,2022-1-23T15:13:35Z
2022-01-23T13:15:07Z,42.805,6.029,13.3004,4.60072,2470.147,2022-1-23T15:16:38Z
2022-01-23T13:18:10Z,42.805,6.029,13.3004,4.60059,2470.147,2022-1-23T15:19:42Z
2022-01-23T13:21:13Z,42.805,6.029,13.3010,4.60081,2470.147,2022-1-23T15:22:45Z
2022-01-23T13:24:16Z,42.805,6.029,13.3026,4.60056,2470.156,2022-1-23T15:25:48Z
2022-01-23T13:27:19Z,42.805,6.029,13.3027,4.60064,2470.147,2022-1-23T15:28:51Z
2022-01-23T13:30:22Z,42.805,6.029,13.3015,4.60093,2470.171,2022-1-23T15:31:54Z
2022-01-23T13:33:26Z,42.805,6.029,13.3018,4.60063,2470.11,2022-1-23T15:34:57Z
2022-01-23T13:36:29Z,42.805,6.029,13.3009,4.60062,2470.194,2022-1-23T15:38:00Z
2022-01-23T13:39:32Z,42.805,6.029,13.3002,4.60046,2470.171,2022-1-23T15:41:03Z
2022-01-23T13:42:35Z,42.805,6.029,13.3014,4.60080,2470.171,2022-1-23T15:44:07Z
2022-01-23T13:45:38Z,42.805,6.029,13.3019,4.60080,2470.133,2022-1-23T15:47:10Z
2022-01-23T13:48:41Z,42.805,6.029,13.3022,4.60065,2470.133,2022-1-23T15:50:13Z
2022-01-23T13:51:44Z,42.805,6.029,13.3014,4.60077,2470.171,2022-1-23T15:53:16Z
2022-01-23T13:54:47Z,42.805,6.029,13.3004,4.60051,2470.203,2022-1-23T15:56:19Z
2022-01-23T13:57:51Z,42.805,6.029,13.3015,4.60064,2470.156,2022-1-23T15:59:22Z
2022-01-23T14:00:54Z,42.805,6.029,13.3006,4.60056,2470.156,2022-1-23T16:02:25Z
2022-01-23T14:03:57Z,42.805,6.029,13.3016,4.60091,2470.133,2022-1-23T16:05:29Z
2022-01-23T14:07:00Z,42.805,6.029,13.3009,4.60066,2470.194,2022-1-23T16:08:32Z
2022-01-23T14:10:03Z,42.805,6.029,13.3005,4.60057,2470.171,2022-1-23T16:11:35Z
2022-01-23T14:13:06Z,42.805,6.029,13.3009,4.60074,2470.156,2022-1-23T16:14:38Z
2022-01-23T14:16:09Z,42.805,6.029,13.3014,4.60079,2470.171,2022-1-23T16:17:41Z
2022-01-23T14:19:13Z,42.805,6.029,13.3008,4.60072,2470.156,2022-1-23T16:20:44Z
2022-01-23T14:22:16Z,42.805,6.029,13.3007,4.60081,2470.171,2022-1-23T16:23:47Z
2022-01-23T14:25:19Z,42.805,6.029,13.3012,4.60055,2470.156,2022-1-23T16:26:50Z
2022-01-23T14:28:22Z,42.805,6.029,13.3018,4.60070,2470.147,2022-1-23T16:29:54Z
2022-01-23T14:31:25Z,42.805,6.029,13.3014,4.60084,2470.171,2022-1-23T16:32:57Z
2022-01-23T14:34:28Z,42.805,6.029,13.3015,4.60087,2470.133,2022-1-23T16:36:00Z
2022-01-23T14:37:31Z,42.805,6.029,13.3009,4.60055,2470.156,2022-1-23T16:39:03Z
2022-01-23T14:40:34Z,42.805,6.029,13.3016,4.60072,2470.133,2022-1-23T16:42:06Z
2022-01-23T14:43:37Z,42.805,6.029,13.3009,4.60060,2470.11,2022-1-23T16:45:09Z
2022-01-23T14:46:41Z,42.805,6.029,13.3012,4.60055,2470.18,2022-1-23T16:48:12Z
2022-01-23T14:49:44Z,42.805,6.029,13.3016,4.60076,2470.133,2022-1-23T16:51:15Z
2022-01-23T14:52:47Z,42.805,6.029,13.3016,4.60081,2470.171,2022-1-23T16:54:19Z
2022-01-23T14:55:50Z,42.805,6.029,13.3008,4.60064,2470.133,2022-1-23T16:57:22Z
2022-01-23T14:58:53Z,42.805,6.029,13.3011,4.60077,2470.133,2022-1-23T17:00:25Z
2022-01-23T15:01:56Z,42.805,6.029,13.3011,4.60070,2470.133,2022-1-23T17:03:28Z
2022-01-23T15:04:59Z,42.805,6.029,13.3013,4.60064,2470.133,2022-1-23T17:06:31Z
2022-01-23T15:08:03Z,42.805,6.029,13.3006,4.60067,2470.147,2022-1-23T17:09:34Z
2022-01-23T15:11:06Z,42.805,6.029,13.3012,4.60068,2470.156,2022-1-23T17:12:37Z